Regional Weather Roundup
Issued by NWS

Home | Current Version | Previous Version | Graphics & Text | Print | Product List | Glossary On
Versions: 1 2 3 4 5 6 7 8 9 10 11 12 13 14 15 16 17 18 19 20 21 22 23 24 25 26 27 28 29 30 31 32 33 34 35 36 37 38 39 40 41 42 43 44 45 46 47 48 49 50
332
ASUS45 KCYS 261310
RWRWY

WYOMING REGIONAL WEATHER ROUNDUP
NATIONAL WEATHER SERVICE CHEYENNE WY
700 AM MDT WED JUL 26 2017

NOTE:  "FAIR" INDICATES FEW OR NO CLOUDS BELOW 12,000 FEET
WITH NO SIGNIFICANT WEATHER AND/OR OBSTRUCTIONS TO VISIBILITY.

WYZ001-261400-
YELLOWSTONE NATIONAL PARK

CITY           SKY/WX    TMP DP  RH WIND       PRES   REMARKS
LK YELLOWSTONE   N/A     48  48 100 NW3       30.42R
W YELLOWSTONE  NOT AVBL

$$
WYZ002>013-054>058-071-098>099-261400-
NORTHERN WYOMING

CITY           SKY/WX    TMP DP  RH WIND       PRES   REMARKS
JACKSON        CLOUDY    48  46  93 CALM      30.34R
CODY           FAIR      53  51  93 CALM      30.24R
GREYBULL       FAIR      56  52  86 CALM      30.18R
WORLAND        FAIR      56  53  90 CALM      30.19R
SHERIDAN       FAIR      57  54  89 S6        30.18R
BUFFALO        FAIR      62  53  72 CALM      30.25R
GILLETTE       CLOUDY    63  62  97 S5        30.21R
HULETT         PTSUNNY   63  59  88 SW5       30.22R
NEWCASTLE      LGT RAIN  61  59  94 CALM      30.23S

$$
WYZ014>020-022>026-101>103-261400-
CENTRAL WYOMING

CITY           SKY/WX    TMP DP  RH WIND       PRES   REMARKS
BIG PINEY      FAIR      50  48  93 E3        30.36R
PINEDALE       FAIR      45  45 100 NW5       30.37R
DUBOIS         FAIR      46  43  87 NW8       30.36R
LANDER         FAIR      56  49  77 CALM      30.27R
RIVERTON       FAIR      58  50  75 W6        30.27R
CASPER         CLOUDY    60  59  96 MISG      30.26R
DOUGLAS        LGT RAIN  60  58  92 SE8       30.26S FOG

$$
WYZ021-027>030-104>119-261400-
SOUTHERN WYOMING

CITY           SKY/WX    TMP DP  RH WIND       PRES   REMARKS
EVANSTON       LGT RAIN  55  54  96 SW5       30.35R
KEMMERER         N/A     54  46  76 NW5       30.36S
FORT BRIDGER   FAIR      57  54  89 W7        30.37R
ROCK SPRINGS   CLOUDY    58  53  84 S5        30.34R
RAWLINS        CLOUDY    59  57  93 NW3       30.33R
SARATOGA       DRIZZLE   59  59 100 CALM      30.34S
LARAMIE        CLOUDY    58  56  93 CALM      30.33R
CHEYENNE       LGT RAIN  60  58  92 N7        30.29R FOG
TORRINGTON     LGT RAIN  61  60  97 NW8       30.19R FOG
PINE BLUFFS    CLOUDY    63  59  88 NW10      30.24R

$$




USA.gov is the U.S. government's official web portal to all federal, state and local government web resources and services.